sat.trackr.live / text

‹ back to catalog

GEESAT-4 09

NORAD 65127 · 2025-170J

PAYLOAD ACTIVE UNKNOWN

§ Identity

Operator
Country
PRC
Launch date
2025-08-08
Launch site
YSLA
Launch vehicle
Mass (kg)
RCS (m²)

External: N2YO · Heavens-Above · Gunter

§ Orbital elements

Epoch: 2026-09-21T20:59:09.512160Z

Period
97.19 min
Inclination
49.9905°
Eccentricity
0.0022051
Mean motion
14.81617004 rev/d
Perigee alt
608.8 km
Apogee alt
639.7 km
Semi-major
7,002.4 km
B*
1.2463e-4
RAAN
117.3146°
Arg perigee
41.3565°
Mean anomaly
318.9038°
Rev number
6,033

§ Raw data

GEESAT-4 091 65127U 25170J   26264.87441565  .00000766  00000+0  12463-3 0  99932 65127  49.9905 117.3146 0022051  41.3565 318.9038 14.81617004 60332

JSON: /api/v1/satellites/65127 · /tle

For live sub-satellite position, see the globe view (requires WebGL).

§ Visibility from observer

Set your observer location to see the next 7 days of passes ≥ 10°. The values pass through the URL so the page stays shareable.

No JS? Fill the form by hand. The geolocation button needs JavaScript.